Terminal Aerodrome Forecast
Issued by NWS

Home | Current Version | Previous Version | Text Only | Print | Product List | Glossary On
Versions: 1 2 3 4 5 6 7 8 9 10 11 12 13 14 15 16 17 18 19 20 21 22 23 24 25 26 27 28 29 30 31 32 33 34 35 36 37 38 39 40 41 42 43 44 45 46 47 48 49 50
213
FTUS44 KHGX 271140
TAFLBX
TAF
KLBX 271140Z 2712/2812 15013KT P6SM BKN015 OVC025
     FM272100 17015G23KT P6SM VCSH FEW030 SCT090
     FM280100 16011KT P6SM FEW015 SCT100=

USA.gov is the U.S. government's official web portal to all federal, state and local government web resources and services.